STARLINK-11274, 61001

Orbit data source: Space-Track

STARLINK-11274, 61001 is a payload satellite owned by SpaceX/Seattle (US) in LEO that was launched on Thu, 05 Sep 2024 UTC via an FALCON 9 launch vehicle from the Air Force Eastern Test Range (AFETR). Payload-class satellites include a variety of spacecraft equipped with specific instruments for various scientific and technological missions. These include communications satellites like Starlink; space stations such as the ISS; scientific satellites like the Hubble; Earth observation satellites from companies like Planet Labs, Umbra, and HawkEye 360; GPS; miniature CubeSats for education and research; and military/defense satellites.

Loading next visibility...
Identifier
61001, 2024-158M
Orbit
LEO
Last TLE update
10 hours ago
Origin
Manufacturer
SpaceX/Seattle
Mission
Operational Commercial Communications
Bus & Motor
STARLINK V2M, Unknown motor
Mass
730 kg wet, ~700 kg dry
Launch date (UTC)
2024-09-05 (10 months ago)
Launch vehicle
FALCON 9
Launch site
Air Force Eastern Test Range (AFETR)
Object type
Payload
Rocket body
Debris
Shape & HBR
Box + 2 Pan, 29 m
Radar Cross Section
36.964 m², Large (>1 m²)

Expand to show TLE details & history

TLE from 10 hours ago
0 STARLINK-11274
1 61001U 24158M   25183.83645760  .00000790  00000-0  11369-4 0  9996
2 61001  53.1578  72.8569 0000633  50.2205 309.8869 15.69710638 48340
Epoch: 2025-07-02T20:04Z
TLE epoch observation values (Epoch: 2025-07-02T20:04:29.936Z)
Latitude
0.00001°
Longitude
-149.37967°
Altitude
360.366 km
Speed
7.694 km/s
True Right ascension
04h 51m 25s
True Declination
0° 00' 00"
Sunlit
Object was in daylight at epoch
Visualization orbit readout
Latitude
-12.49735°
Longitude
38.0712°
Altitude
363.433 km
Speed
7.692 km/s
Apparent Right ascension
16h 02m 53s
Apparent Declination
-71° 40' 33"
Sunlit
Object is in full shadow
Visualization observer readout
Local Sidereal Time
17:49:58
Azimuth
188.862° SSW
Elevation
-23.194°
Doppler factor
1
Orbital elements
Apogee altitude
360.412 km
Perigee altitude
359.559 km
Semi-major axis
6,738.123 km
Eccentricity
0.00006
Inclination
53.1578°
RAAN
72.8569°
Arg. of periapsis
50.2205°
True anomaly
Unknown
Mean anomaly
309.8869°
Eccentric anomaly
Unknown
Mean motion
3.92405 °/min
Orbital period
91.74 mins
BSTAR
0.000011369
Loading maneuver chart data...
Loading SW <> Apogee altitude chart data...
Loading historical data...
Loading historical data...
Loading historical data...
Loading historical data...
Loading historical data...
Loading historical data...
Loading historical data...

STARLINK-11274 Visibility forecast

Observer location: undefined°, undefined°

Span
Click to sort rows by Start time (UTC) header in descending order
Start Az.
Max El. time (UTC)
Max El. Az.
Max El.
End time (UTC)
End Az.
5 mins2025-07-03 19:10:21.576Z223.727° SW2025-07-03 19:13:21.576Z81.674° E42.173°2025-07-03 19:15:21.576Z53.874° ENE
4 mins2025-07-04 01:36:21.576Z335.029° NNW2025-07-04 01:37:21.576Z9.31° NNE33.762°2025-07-04 01:40:21.576Z110.025° ESE
|